This is the latest recevied weather packets stored in our database for station/object AE0NK. If no packets are shown the sender has not sent any weather packets the latest 10 day(s).
| Time | Temp. | Humidity | Pressure | Rain* | Wind** | Luminosity | Snow |
|---|---|---|---|---|---|---|---|
| 1778167405 | 11.11° C | 66% | 1013 hPa | 0 mm | - | 251 W/m² | - |
| 1778167103 | 11.11° C | 64% | 1013 hPa | 0 mm | - | 169 W/m² | - |
| 1778166802 | 11.11° C | 64% | 1013 hPa | 0 mm | - | 207 W/m² | - |
| 1778166500 | 11.11° C | 63% | 1012.7 hPa | 0 mm | - | 149 W/m² | - |
| 1778166199 | 11.11° C | 62% | 1012.4 hPa | 0 mm | - | 114 W/m² | - |
| 1778165894 | 11.11° C | 63% | 1012.2 hPa | 0 mm | - | 142 W/m² | - |
| 1778165592 | 10.56° C | 63% | 1012.2 hPa | 0 mm | - | 102 W/m² | - |
| 1778165311 | 10.56° C | 64% | 1012.4 hPa | 0 mm | - | 127 W/m² | - |
| 1778164708 | 10° C | 65% | 1012.5 hPa | 0 mm | - | 130 W/m² | - |
| 1778164405 | 10° C | 65% | 1012.7 hPa | 0 mm | - | 70 W/m² | - |
| 1778164102 | 10° C | 66% | 1012.8 hPa | 0 mm | - | 121 W/m² | - |
| 1778163800 | 10° C | 67% | 1013 hPa | 0 mm | - | 132 W/m² | - |
| 1778163498 | 10° C | 66% | 1013.2 hPa | 0 mm | - | 165 W/m² | - |
| 1778163195 | 9.44° C | 67% | 1013.4 hPa | 0 mm | - | 237 W/m² | - |
| 1778162892 | 9.44° C | 67% | 1013.5 hPa | 0 mm | - | 186 W/m² | - |
| 1778162610 | 8.89° C | 66% | 1013.5 hPa | 0 mm | - | 134 W/m² | - |
| 1778162306 | 8.89° C | 66% | 1013.6 hPa | 0 mm | - | 97 W/m² | - |
| 1778162004 | 8.89° C | 64% | 1013.6 hPa | 0 mm | - | 132 W/m² | - |
| 1778161702 | 8.33° C | 62% | 1013.6 hPa | 0 mm | - | 121 W/m² | - |
| 1778161401 | 8.33° C | 62% | 1013.6 hPa | 0 mm | - | 88 W/m² | - |
| 1778161097 | 7.78° C | 62% | 1013.8 hPa | 0 mm | - | 70 W/m² | - |
| 1778160795 | 7.78° C | 63% | 1013.9 hPa | 0 mm | - | 63 W/m² | - |
| 1778160494 | 7.78° C | 62% | 1013.8 hPa | 0 mm | - | 51 W/m² | - |
| 1778160191 | 7.78° C | 62% | 1013.8 hPa | 0 mm | - | 60 W/m² | - |
| 1778159910 | 7.78° C | 62% | 1013.4 hPa | 0 mm | - | 97 W/m² | - |
* Rain latest hour (hover to see other rain measurements)
** Current wind speed in m/s (hover to see current wind gust speed)